This is the latest recevied weather packets stored in our database for station/object AF5AA. If no packets are shown the sender has not sent any weather packets the latest 10 day(s).
| Time | Temp. | Humidity | Pressure | Rain* | Wind** | Luminosity | Snow |
|---|---|---|---|---|---|---|---|
| 1778083929 | 16.67° C | 88% | 1013.3 hPa | 0 mm | - | 52 W/m² | - |
| 1778083627 | 16.67° C | 88% | 1013.3 hPa | 0 mm | - | 51 W/m² | - |
| 1778083323 | 16.67° C | 88% | 1012.8 hPa | 0 mm | - | 64 W/m² | - |
| 1778083021 | 16.67° C | 87% | 1012.6 hPa | 0 mm | - | 50 W/m² | - |
| 1778082718 | 16.67° C | 88% | 1012.6 hPa | 0 mm | - | 47 W/m² | - |
| 1778081586 | 16.67° C | 87% | 1012 hPa | 0 mm | - | 62 W/m² | - |
| 1778081283 | 16.67° C | 87% | 1011.7 hPa | 0 mm | - | 61 W/m² | - |
| 1778080980 | 16.67° C | 88% | 1011.7 hPa | 0 mm | - | 62 W/m² | - |
| 1778080679 | 16.67° C | 88% | 1011.8 hPa | 0 mm | - | 69 W/m² | - |
| 1778080375 | 16.67° C | 89% | 1011.8 hPa | 0 mm | - | 43 W/m² | - |
| 1778080072 | 16.67° C | 89% | 1012.1 hPa | 0 mm | - | 39 W/m² | - |
| 1778079769 | 16.67° C | 89% | 1011.9 hPa | 0 mm | - | 31 W/m² | - |
| 1778079466 | 16.67° C | 89% | 1012 hPa | 0 mm | - | 31 W/m² | - |
| 1778079162 | 17.22° C | 89% | 1011.7 hPa | 0 mm | - | 29 W/m² | - |
| 1778078860 | 17.22° C | 88% | 1011.6 hPa | 0 mm | - | 24 W/m² | - |
| 1778078557 | 17.22° C | 89% | 1011.4 hPa | 0 mm | - | 33 W/m² | - |
| 1778078254 | 17.22° C | 89% | 1011.3 hPa | 0 mm | - | 44 W/m² | - |
| 1778077951 | 17.22° C | 89% | 1011.1 hPa | 0 mm | - | 33 W/m² | - |
| 1778077650 | 17.22° C | 89% | 1011.1 hPa | 0 mm | - | 35 W/m² | - |
| 1778077348 | 17.78° C | 88% | 1011 hPa | 0 mm | - | 29 W/m² | - |
| 1778077045 | 17.78° C | 88% | 1011.2 hPa | 0 mm | - | 26 W/m² | - |
| 1778076744 | 17.78° C | 88% | 1011 hPa | 0 mm | - | 46 W/m² | - |
| 1778076441 | 17.78° C | 88% | 1010.8 hPa | 0 mm | - | 34 W/m² | - |
| 1778076138 | 17.78° C | 89% | 1010.8 hPa | 0 mm | - | 31 W/m² | - |
| 1778075834 | 18.33° C | 89% | 1010.8 hPa | 0 mm | - | 20 W/m² | - |
* Rain latest hour (hover to see other rain measurements)
** Current wind speed in m/s (hover to see current wind gust speed)